When you browse on this site, cookies collect data to enhance your experience and personalize the content and advertising you see.
Visit our Privacy Policy to learn more. By continuing to use the site, you agree to this use of cookies and data.
  • In Czech Republic
  • List of Countries
  • For 7 days
  • Water Temperature
  • Satellite Maps
  • Weather Map
  • Weather Widgets
  • user-avatar
    Login

    Hourly Weather Nzérékoré

    Today, 17 December, Monday

    Time Temperature Precipitation Wind Pressure Humidity
    00:00 +28°C° 0 mm 1 mps 746 mmHg 18%
    01:00 +27°C° 0 mm 1 mps 746 mmHg 21%
    02:00 +27°C° 0 mm 1 mps 746 mmHg 21%
    03:00 +26°C° 0 mm 1 mps 746 mmHg 21%
    04:00 +26°C° 0 mm 1 mps 746 mmHg 21%
    05:00 +25°C° 0 mm 1 mps 746 mmHg 22%
    06:00 +25°C° 0 mm 1 mps 746 mmHg 22%
    07:00 +25°C° 0 mm 1 mps 746 mmHg 24%
    08:00 +28°C° 0 mm 2 mps 746 mmHg 20%
    09:00 +30°C° 0 mm 3 mps 746 mmHg 17%
    10:00 +34°C° 0 mm 4 mps 746 mmHg 13%
    11:00 +35°C° 0 mm 4 mps 746 mmHg 12%
    12:00 +37°C° 0 mm 3 mps 745 mmHg 11%
    13:00 +39°C° 0 mm 3 mps 745 mmHg 10%
    14:00 +39°C° 0 mm 3 mps 744 mmHg 10%
    15:00 +39°C° 0 mm 3 mps 743 mmHg 9%
    16:00 +40°C° 0 mm 3 mps 743 mmHg 9%
    17:00 +38°C° 0 mm 2 mps 743 mmHg 11%
    18:00 +36°C° 0 mm 2 mps 743 mmHg 12%
    19:00 +33°C° 0 mm 1 mps 743 mmHg 13%
    20:00 +32°C° 0 mm 1 mps 744 mmHg 13%
    21:00 +31°C° 0 mm 1 mps 744 mmHg 14%
    22:00 +30°C° 0 mm 1 mps 745 mmHg 14%
    23:00 +30°C° 0 mm 1 mps 745 mmHg 15%

    Tomorrow, 18 December, Tuesday

    Time Temperature Precipitation Wind Pressure Humidity
    00:00 +29°C° 0 mm 1 mps 745 mmHg 15%
    01:00 +28°C° 0 mm 1 mps 745 mmHg 15%
    02:00 +27°C° 0 mm 1 mps 745 mmHg 19%
    03:00 +27°C° 0 mm 1 mps 745 mmHg 23%
    04:00 +26°C° 0 mm 1 mps 745 mmHg 26%
    05:00 +25°C° 0 mm 1 mps 745 mmHg 32%
    06:00 +25°C° 0 mm 1 mps 745 mmHg 38%
    07:00 +24°C° 0 mm 1 mps 746 mmHg 44%
    08:00 +27°C° 0 mm 2 mps 746 mmHg 35%
    09:00 +29°C° 0 mm 3 mps 746 mmHg 26%
    10:00 +33°C° 0 mm 3 mps 747 mmHg 16%
    11:00 +35°C° 0 mm 3 mps 746 mmHg 14%
    12:00 +37°C° 0 mm 3 mps 745 mmHg 12%
    13:00 +38°C° 0 mm 3 mps 745 mmHg 10%
    14:00 +39°C° 0 mm 3 mps 744 mmHg 10%
    15:00 +39°C° 0 mm 3 mps 743 mmHg 10%
    16:00 +40°C° 0 mm 3 mps 742 mmHg 10%
    17:00 +38°C° 0 mm 2 mps 743 mmHg 11%
    18:00 +36°C° 0 mm 2 mps 743 mmHg 13%
    19:00 +33°C° 0 mm 1 mps 743 mmHg 14%
    20:00 +32°C° 0 mm 1 mps 744 mmHg 15%
    21:00 +31°C° 0 mm 1 mps 744 mmHg 15%
    22:00 +30°C° 0 mm 1 mps 745 mmHg 16%
    23:00 +30°C° 0 mm 1 mps 745 mmHg 17%

    Day after tomorrow, 19 December, Wednesday

    Time Temperature Precipitation Wind Pressure Humidity
    00:00 +29°C° 0 mm 1 mps 745 mmHg 18%
    01:00 +28°C° 0 mm 1 mps 745 mmHg 19%
    02:00 +28°C° 0 mm 1 mps 745 mmHg 27%
    03:00 +27°C° 0 mm 2 mps 745 mmHg 35%
    04:00 +26°C° 0 mm 2 mps 745 mmHg 43%
    05:00 +26°C° 0 mm 2 mps 745 mmHg 55%
    06:00 +25°C° 0 mm 2 mps 746 mmHg 66%
    07:00 +25°C° 0 mm 1 mps 746 mmHg 77%
    08:00 +27°C° 0 mm 1 mps 746 mmHg 67%
    09:00 +30°C° 0 mm 1 mps 747 mmHg 57%
    10:00 +32°C° 0 mm 1 mps 747 mmHg 47%
    11:00 +35°C° 0 mm 2 mps 746 mmHg 39%
    12:00 +37°C° 0 mm 2 mps 746 mmHg 31%
    13:00 +38°C° 0 mm 2 mps 745 mmHg 23%
    14:00 +39°C° 0 mm 2 mps 744 mmHg 20%
    15:00 +39°C° 0 mm 2 mps 743 mmHg 18%
    16:00 +39°C° 0 mm 2 mps 743 mmHg 15%
    17:00 +36°C° 0 mm 1 mps 743 mmHg 16%
    18:00 +35°C° 0 mm 1 mps 743 mmHg 17%
    19:00 +33°C° 0 mm 1 mps 743 mmHg 17%
    20:00 +32°C° 0 mm 1 mps 744 mmHg 17%
    21:00 +31°C° 0 mm 1 mps 745 mmHg 17%
    22:00 +31°C° 0 mm 1 mps 745 mmHg 17%
    23:00 +30°C° 0 mm 1 mps 745 mmHg 18%

    20 December, Thursday

    Time Temperature Precipitation Wind Pressure Humidity
    00:00 +30°C° 0 mm 1 mps 745 mmHg 18%
    01:00 +29°C° 0 mm 1 mps 745 mmHg 18%
    02:00 +28°C° 0 mm 1 mps 744 mmHg 21%
    03:00 +27°C° 0 mm 1 mps 744 mmHg 24%
    04:00 +27°C° 0 mm 1 mps 744 mmHg 26%
    05:00 +26°C° 0 mm 1 mps 745 mmHg 33%
    06:00 +26°C° 0 mm 1 mps 745 mmHg 40%
    07:00 +25°C° 0 mm 1 mps 746 mmHg 48%
    08:00 +28°C° 0 mm 2 mps 746 mmHg 41%
    09:00 +30°C° 0 mm 2 mps 746 mmHg 34%
    10:00 +34°C° 0 mm 2 mps 747 mmHg 28%
    11:00 +35°C° 0 mm 2 mps 746 mmHg 23%
    12:00 +37°C° 0 mm 2 mps 745 mmHg 18%
    13:00 +38°C° 0 mm 2 mps 744 mmHg 14%
    14:00 +38°C° 0 mm 2 mps 744 mmHg 13%
    15:00 +39°C° 0 mm 2 mps 743 mmHg 13%
    16:00 +39°C° 0 mm 2 mps 742 mmHg 12%
    17:00 +36°C° 0 mm 1 mps 743 mmHg 14%
    18:00 +34°C° 0 mm 1 mps 743 mmHg 15%
    19:00 +31°C° 0 mm 0 mps 743 mmHg 17%
    20:00 +30°C° 0 mm 0 mps 744 mmHg 17%
    21:00 +29°C° 0 mm 0 mps 744 mmHg 18%
    22:00 +28°C° 0 mm 0 mps 745 mmHg 19%
    23:00 +28°C° 0 mm 0 mps 745 mmHg 19%

    21 December, Friday

    Time Temperature Precipitation Wind Pressure Humidity
    00:00 +29°C° 0 mm 1 mps 745 mmHg 20%
    01:00 +29°C° 0 mm 1 mps 744 mmHg 20%
    02:00 +28°C° 0 mm 1 mps 744 mmHg 24%
    03:00 +27°C° 0 mm 1 mps 744 mmHg 27%
    04:00 +26°C° 0 mm 2 mps 744 mmHg 31%
    05:00 +26°C° 0 mm 1 mps 745 mmHg 40%
    06:00 +26°C° 0 mm 1 mps 745 mmHg 49%
    07:00 +25°C° 0 mm 1 mps 746 mmHg 58%
    08:00 +28°C° 0 mm 2 mps 746 mmHg 48%
    09:00 +30°C° 0 mm 2 mps 746 mmHg 38%
    10:00 +32°C° 0 mm 2 mps 746 mmHg 27%
    11:00 +35°C° 0 mm 3 mps 746 mmHg 22%
    12:00 +36°C° 0 mm 3 mps 745 mmHg 18%
    13:00 +38°C° 0 mm 3 mps 744 mmHg 13%
    14:00 +38°C° 0 mm 2 mps 743 mmHg 12%
    15:00 +39°C° 0 mm 2 mps 742 mmHg 12%
    16:00 +39°C° 0 mm 2 mps 742 mmHg 11%
    17:00 +36°C° 0 mm 1 mps 742 mmHg 13%
    18:00 +34°C° 0 mm 1 mps 742 mmHg 14%
    19:00 +30°C° 0 mm 0 mps 743 mmHg 16%
    20:00 +32°C° 0 mm 1 mps 743 mmHg 16%
    21:00 +31°C° 0 mm 1 mps 744 mmHg 17%
    22:00 +30°C° 0 mm 1 mps 744 mmHg 17%
    23:00 +30°C° 0 mm 1 mps 744 mmHg 18%

    22 December, Saturday

    Time Temperature Precipitation Wind Pressure Humidity
    00:00 +29°C° 0 mm 1 mps 744 mmHg 18%
    01:00 +28°C° 0 mm 1 mps 744 mmHg 19%
    02:00 +28°C° 0 mm 1 mps 744 mmHg 24%
    03:00 +27°C° 0 mm 1 mps 744 mmHg 28%
    04:00 +26°C° 0 mm 2 mps 743 mmHg 33%
    05:00 +26°C° 0 mm 1 mps 744 mmHg 43%
    06:00 +25°C° 0 mm 1 mps 744 mmHg 52%
    07:00 +25°C° 0 mm 1 mps 745 mmHg 62%
    08:00 +27°C° 0 mm 1 mps 745 mmHg 51%
    09:00 +29°C° 0 mm 2 mps 746 mmHg 40%
    10:00 +32°C° 0 mm 2 mps 746 mmHg 30%
    11:00 +34°C° 0 mm 2 mps 745 mmHg 24%
    12:00 +36°C° 0 mm 2 mps 744 mmHg 19%
    13:00 +38°C° 0 mm 2 mps 743 mmHg 14%
    14:00 +38°C° 0 mm 2 mps 743 mmHg 13%
    15:00 +38°C° 0 mm 2 mps 742 mmHg 12%
    16:00 +39°C° 0 mm 2 mps 741 mmHg 11%
    17:00 +36°C° 0 mm 1 mps 742 mmHg 12%
    18:00 +34°C° 0 mm 1 mps 742 mmHg 14%
    19:00 +32°C° 0 mm 1 mps 742 mmHg 15%
    20:00 +29°C° 0 mm 0 mps 743 mmHg 16%
    21:00 +29°C° 0 mm 0 mps 743 mmHg 16%
    22:00 +28°C° 0 mm 0 mps 744 mmHg 17%
    23:00 +29°C° 0 mm 1 mps 744 mmHg 18%
    Show more